Lid_Strength_Index
1 0 0 0 0 -0 -0 -0 -0 -1 -1 -1 -1 -1 -1 -1 -1 -1 -1 -1 -0 -0 -1 -0 -0 -1 0 0 -0 0 1 1 2 1 0 -1 -1 -1 -1 -2 -2 -2 -1
0 0 0 0 -0 0 0 -0 -1 -0 -1 -1 -1 -1 -1 -1 -1 -0 -0 -0 -0 0 -0 -0 0 0 -0 -0 0 -0 0 -0 1 2 1 0 -0 -1 -1 -1 -1 -1 -1
1 1 0 1 0 0 0 -0 -0 -0 -0 -1 -1 -0 -0 -1 -1 -1 -0 -0 -0 -0 -0 -0 -0 -0 0 0 -0 0 0 0 0 1 2 0 0 -0 -0 -1 -1 -1 -1
1 1 1 1 0 0 -0 -0 -0 -1 -0 -0 -1 -1 -1 -1 -1 -0 -0 -0 -0 -0 -0 -0 -0 -0 0 -0 0 0 0 1 1 1 1 1 1 -0 -0 1 1 -0 0
1 1 1 0 0 -0 -0 -0 -0 -0 -0 -1 -1 -1 -1 -0 -0 -0 -0 -0 -0 -0 -0 -0 -1 -0 1 0 0 -0 -0 1 1 2 2 2 2 1 1 1 1 1 -0
1 1 1 0 0 0 0 0 -0 -0 -0 -0 -0 -0 -0 0 2 2 0 -0 -0 0 0 -0 -1 -0 0 2 2 2 0 1 1 2 2 2 1 1 0 1 1 2 3
1 1 1 1 1 0 0 0 0 0 -0 0 -0 -0 0 -0 4 3 1 -0 -0 0 -0 0 0 -0 -0 -0 2 3 3 3 2 0 1 1 1 1 0 1 1 1 2
1 1 1 1 1 1 1 1 0 0 0 0 0 0 0 0 3 2 2 -0 -0 -0 -0 -0 -0 -0 -0 -0 -0 0 -0 -0 -0 -0 -0 0 -0 -1 -0 -0 1 1 0
2 1 1 1 1 1 1 1 1 1 1 0 0 1 1 0 4 5 2 -0 0 0 -0 -1 -0 -0 3 3 0 1 0 0 1 2 3 3 3 3 2 0 1 2 3
2 1 1 1 1 1 1 1 1 1 1 1 0 0 2 0 3 6 3 0 0 1 -0 -1 2 0 5 5 0 0 1 1 -0 -0 -0 -0 1 -0 2 -0 0 2 2
1 1 1 1 1 1 1 0 1 1 0 1 1 0 0 0 0 7 6 0 1 1 1 1 -0 4 6 6 6 0 1 0 1 0 0 0 -0 -0 -0 -1 -1 0 2
1 1 1 1 1 1 1 1 1 1 1 1 1 1 0 -0 5 7 7 6 3 1 1 0 0 6 7 7 5 5 6 5 1 1 1 1 1 0 -0 -1 -1 -1 -1
1 1 1 1 1 0 1 2 2 1 2 2 2 2 1 1 0 6 6 6 6 1 -0 3 6 6 6 5 6 6 6 1 1 1 1 1 0 -0 -1 -1 -1 -1 -1
1 1 1 1 1 1 1 1 1 2 2 2 2 2 1 1 0 0 0 0 3 1 2 0 1 2 4 2 1 1 0 0 0 1 1 0 -0 -0 0 0 1 0 1
2 2 1 1 1 1 1 1 1 0 1 2 1 1 1 1 1 3 4 0 0 3 1 0 0 1 1 1 0 0 0 0 1 1 1 1 1 1 1 0 1 1 2
2 2 2 2 1 1 2 1 12 12 14 14 12 6 1 9 12 12 12 12 11 9 1 1 1 1 1 1 1 1 0 1 1 1 1 1 1 1 1 1 1 1 2
2 2 2 2 2 2 2 2 2 7 13 13 13 13 12 13 14 14 14 12 10 8 1 1 1 1 1 1 1 1 2 1 -0 1 1 1 1 2 2 1 1 1 2
1 7 1 1 2 1 2 2 1 2 2 2 11 10 15 15 15 14 13 11 1 3 1 1 1 1 1 1 1 1 1 1 1 1 1 1 1 1 1 2 2 2 2
2 2 2 1 1 2 1 1 1 1 1 1 2 8 12 14 13 12 12 1 1 1 1 1 1 1 1 1 1 1 1 1 1 1 1 1 1 1 2 1 2 5 5
1 4 3 1 1 1 1 1 1 1 1 1 1 1 2 4 1 1 1 1 1 1 1 1 0 0 0 1 1 1 1 1 1 1 1 1 1 1 1 2 2 3 4
1 2 3 2 1 1 1 1 1 1 1 1 1 1 4 1 1 1 1 1 1 0 0 0 0 0 0 0 1 1 1 1 1 1 1 1 1 2 2 2 3 3 5
1 2 2 2 1 1 1 1 1 1 1 1 1 1 8 1 0 0 0 0 -0 -1 -1 -1 -0 -0 -1 1 1 1 1 1 1 1 1 2 2 2 2 3 3 4 4
1 1 1 1 1 2 2 1 1 1 1 1 1 1 1 1 0 0 0 -0 -1 -1 -1 -1 -1 -1 -2 -1 -0 0 1 1 0 0 1 1 2 2 2 3 3 3 3
1 2 1 1 1 1 1 1 1 3 1 1 1 1 1 0 0 0 -0 -0 -1 -1 -1 -1 -1 -1 -1 -1 -1 -1 -1 0 0 0 0 0 1 2 1 1 1 2 2
1 2 2 2 2 2 2 1 1 1 1 1 1 1 0 0 0 -0 -0 -0 -1 -1 -1 -1 -1 -1 -1 -1 -1 -1 6 10 2 7 -1 -1 -0 -0 0 0 1 0 1
1 2 2 2 2 2 2 1 1 1 1 1 1 1 0 0 0 -0 -0 -0 -0 -0 -1 -1 -0 -1 -0 -0 -1 7 14 13 6 13 1 -0 0 1 1 1 1 2 1